Location: Fort Wayne
(41.1310°N, 85.1290°W)
Time: 04:42:02
(UTC-05:00)

Tiros 1 despin weight - Visible Passes

Search period start: 17 December 2017 00:00
Search period end: 27 December 2017 00:00
Orbit: 595 x 643 km, 48.2° (Epoch: 16 December)

Date Brightness Start Highest point End Pass type
(mag) Time Alt. Az. Time Alt. Az. Time Alt. Az.
17 Dec ? 20:11:31 10° SW 20:12:40 17° SW 20:12:40 17° SW visible
18 Dec ? 18:48:24 10° S 18:51:42 19° SE 18:52:08 19° SE visible
18 Dec ? 20:28:09 10° WSW 20:29:14 17° WSW 20:29:14 17° WSW visible
19 Dec ? 19:04:02 10° SSW 19:08:18 36° SE 19:08:37 35° SE visible
19 Dec ? 20:45:10 10° WSW 20:45:43 13° WSW 20:45:43 13° WSW visible
20 Dec ? 19:20:24 10° SW 19:25:02 66° SSE 19:25:03 66° SE visible
21 Dec ? 17:56:46 10° SSW 18:00:36 26° SE 18:04:19 11° E visible
21 Dec ? 19:37:12 10° WSW 19:41:25 68° W 19:41:25 68° W visible
22 Dec ? 18:12:46 10° SW 18:17:16 47° SE 18:20:38 17° ENE visible
22 Dec ? 19:54:19 10° W 19:57:43 40° WNW 19:57:43 40° WNW visible
23 Dec ? 18:29:22 10° WSW 18:34:03 83° SSE 18:36:54 24° ENE visible
23 Dec ? 20:11:35 10° W 20:13:59 26° WNW 20:13:59 26° WNW visible
24 Dec ? 18:46:18 10° WSW 18:50:58 63° NNW 18:53:08 30° NE visible
24 Dec ? 20:28:52 10° WNW 20:30:12 17° WNW 20:30:12 17° WNW visible
25 Dec ? 19:03:30 10° W 19:08:01 45° NNW 19:09:19 35° NNE visible
25 Dec ? 20:46:03 10° WNW 20:46:24 12° WNW 20:46:24 12° WNW visible
26 Dec ? 17:38:23 10° WSW 17:43:06 80° NNW 17:47:48 10° ENE visible
26 Dec ? 19:20:48 10° WNW 19:25:09 36° N 19:25:30 36° N visible
